User: anonymous   Login
Location: Mactaquac Provincial Park
(45.9573°N, 66.8897°W)
Time: 01:12:04
(UTC-04:00)
Language:

Cosmos 1766 - Orbit

View from above orbital plane
View from above orbital plane
View from above satellite
View from above satellite

Ground track
Ground track

The orbit data is extracted from the following two-line orbital elements,

1 16881U 86055A   14356.14285826  .00008153  00000-0  54379-3 0   420
2 16881 082.5063 190.3903 0011038 306.5259 053.4952 15.06881852544496
Epoch (UTC): 22 December 2014 03:25:42
Eccentricity: 0.0011038
inclination: 82.5063°
perigee height: 538 km
apogee height: 553 km
right ascension of ascending node: 190.3903°
argument of perigee: 306.5259°
revolutions per day: 15.06881852
mean anomaly at epoch: 53.4952°
orbit number at epoch: 54449

The dashed part of the orbit path shows where the satellite is in the earth's shadow,  

DLR